Location: 3 Angels Observatory
(30.5437°N, 88.5068°W)
Time: 19:34:11
(UTC-05:00)

Amateur Radio Satellites - All Passes

Search period start: 27 April 2015 19:04
Search period end: 28 April 2015 19:04
Location: 3 Angels Observatory, 30.5437°N, 88.5068°W

Satellite Date Start Highest point End Downlink Frequencies (MHz)
Time Altitude Azimuth
Cosmos 2499 27 Apr 19:05:39 19:14:27 64° 279° (W) 19:23:04 435.465 / 435.565
PHONESAT 2.4 27 Apr 19:09:53 19:12:16 16° 358° (N) 19:14:37 2401.200-2431.200
CUBESAT XI-V 27 Apr 19:11:55 19:16:32 75° 101° (E) 19:21:09 437.345
M-CUBED/EXP-1 PRIME 27 Apr 19:12:50 19:16:49 69° 104° (ESE) 19:20:27 437.505
CUTE-I 27 Apr 19:13:08 19:18:02 36° 262° (W) 19:22:52 437.470
HO-68 27 Apr 19:14:17 19:17:02 13° 61° (ENE) 19:20:17 435.675
SO-50 27 Apr 19:21:06 19:23:09 13° 48° (NE) 19:25:26 436.795
Cubesat XI-IV 27 Apr 19:23:51 19:28:25 28° 264° (W) 19:32:54 437.490
GOMX 1 27 Apr 19:44:58 19:46:48 13° 69° (ENE) 19:48:55 467.674
CUTE 1.7 + AOD 2 27 Apr 19:52:10 19:53:23 11° 70° (ENE) 19:54:52 437.475
AUBIESAT-1 27 Apr 19:53:22 19:57:02 36° 291° (WNW) 20:00:23 437.475
VERMONT LUNAR 27 Apr 19:57:31 20:00:18 23° 16° (NNE) 20:03:06 437.305
BRITE-PL 27 Apr 20:06:52 20:10:43 40° 75° (ENE) 20:14:44 437.365/2234.400
DOVE 4 27 Apr 20:09:44 20:12:23 17° 70° (ENE) 20:15:17 437.250
STRAND 1 27 Apr 20:11:51 20:16:53 60° 285° (WNW) 20:21:54 437.568
PRISM 27 Apr 20:24:29 20:27:47 23° 288° (WNW) 20:30:59 437.425
COMPASS 1 27 Apr 20:35:17 20:38:43 25° 73° (ENE) 20:42:15 437.405
CINEMA 3 27 Apr 20:37:12 20:39:57 17° 70° (ENE) 20:42:57 145.822/145.860
O/OREOS (USA 219) 27 Apr 20:41:24 20:42:30 11° 100° (E) 20:43:55 437.305
PHONESAT 2.4 27 Apr 20:48:22 20:51:16 23° 14° (NNE) 20:54:12 2401.200-2431.200
HO-68 27 Apr 20:56:45 21:03:57 88° 75° (ENE) 21:11:12 435.675
SO-50 27 Apr 20:59:20 21:04:17 70° 244° (WSW) 21:09:06 436.795
SEEDS 27 Apr 21:03:31 21:07:46 75° 77° (ENE) 21:12:03 437.485
Oscar 11 27 Apr 21:05:42 21:09:00 22° 72° (ENE) 21:12:27 145.826/435.025
ZACube-1 27 Apr 21:12:57 21:15:04 14° 70° (ENE) 21:17:27 437.345
AAUSAT CUBESAT 2 27 Apr 21:15:06 21:19:17 70° 77° (ENE) 21:23:30 437.432
CANX-2 27 Apr 21:15:56 21:20:09 54° 260° (W) 21:24:23 2200.000
GOMX 1 27 Apr 21:20:46 21:24:39 37° 263° (W) 21:28:38 467.674
RS-15 27 Apr 21:23:56 21:30:41 18° 35° (NE) 21:38:15 29.354- 29.394
CUTE 1.7 + AOD 2 27 Apr 21:24:48 21:28:56 46° 261° (W) 21:33:05 437.475
VERMONT LUNAR 27 Apr 21:34:37 21:37:59 72° 212° (SSW) 21:41:20 437.305
Cosmos 2491 27 Apr 21:38:09 21:44:43 26° 86° (E) 21:51:40 435.465 / 435.565
DX 1 27 Apr 21:43:36 21:46:37 19° 71° (ENE) 21:49:47 434.975-435.025
DOVE 4 27 Apr 21:46:15 21:49:57 29° 264° (W) 21:53:46 437.250
BRITE-PL 27 Apr 21:48:49 21:49:38 10° 270° (W) 21:50:08 437.365/2234.400
YUBILEINY 27 Apr 21:53:14 22:01:46 56° 80° (E) 22:10:16 435.215
CUBEBUG 2 27 Apr 21:55:55 22:00:13 77° 77° (ENE) 22:04:43 437.445
DELFI C3 27 Apr 22:10:43 22:14:48 74° 259° (W) 22:18:53 145.870
COMPASS 1 27 Apr 22:11:15 22:14:23 19° 266° (W) 22:17:24 437.405
CINEMA 3 27 Apr 22:13:06 22:16:56 31° 264° (W) 22:20:52 145.822/145.860
UWE-3 27 Apr 22:17:06 22:21:25 73° 259° (W) 22:25:52 435.000/436.395/437.385
O/OREOS (USA 219) 27 Apr 22:17:07 22:21:33 49° 291° (WNW) 22:25:59 437.305
FUNcube-1 27 Apr 22:20:20 22:24:38 87° 258° (WSW) 22:29:05 145.935
UKube-1 27 Apr 22:22:02 22:26:14 54° 75° (ENE) 22:30:28 .
HUMSAT D 27 Apr 22:23:02 22:27:01 43° 75° (ENE) 22:31:06 437.325/437.525
PHONESAT 2.4 27 Apr 22:26:13 22:29:49 89° 230° (SW) 22:33:23 2401.200-2431.200
ESTCUBE 1 27 Apr 22:30:16 22:32:50 16° 70° (ENE) 22:35:36 437.505/2401.250
Oscar 11 27 Apr 22:41:35 22:45:07 23° 265° (W) 22:48:33 145.826/435.025
50 SAT 27 Apr 22:46:58 22:50:48 50° 76° (ENE) 22:54:44 437.505
ZACube-1 27 Apr 22:47:03 22:51:07 39° 263° (W) 22:55:15 437.345
HO-68 27 Apr 22:49:56 22:52:36 12° 270° (W) 22:54:36 435.675
TIGRISAT 27 Apr 22:53:31 22:57:39 31° 96° (E) 23:01:46 435.000
CUBEBUG 1 27 Apr 22:57:54 23:01:32 27° 73° (ENE) 23:05:14 437.445
VELOX 1 27 Apr 22:58:44 23:03:06 68° 76° (ENE) 23:07:28 145.980
UNISAT 6 27 Apr 22:58:46 23:03:06 37° 98° (E) 23:07:23 437.425
DUCHIFAT 1 27 Apr 23:00:50 23:03:19 16° 93° (E) 23:05:59 145.980
POLYITAN 1 27 Apr 23:02:33 23:05:21 17° 94° (E) 23:08:19 437.675
AISAT 27 Apr 23:17:36 23:21:57 67° 258° (WSW) 23:26:20 437.250
QB50P1 27 Apr 23:18:57 23:22:36 27° 97° (E) 23:26:18 145.935-145.965
DX 1 27 Apr 23:19:02 23:22:44 26° 263° (W) 23:26:21 434.975-435.025
TISAT 1 27 Apr 23:31:32 23:32:54 12° 70° (ENE) 23:34:31 437.305
Cosmos 2491 27 Apr 23:32:41 23:41:09 53° 281° (W) 23:49:38 435.465 / 435.565
RS-15 27 Apr 23:34:18 23:45:55 68° 60° (ENE) 23:58:02 29.354- 29.394
ANTELSAT 27 Apr 23:40:41 23:45:21 68° 284° (WNW) 23:49:54 437.575/2403.000
JUGNU 27 Apr 23:40:58 23:45:14 20° 167° (SSE) 23:49:34 437.505
QB50P2 27 Apr 23:45:26 23:49:42 62° 101° (E) 23:53:58 145.880/145.840
YUBILEINY 27 Apr 23:51:22 23:58:06 24° 274° (W) 00:04:25 435.215
SRMSAT 27 Apr 23:57:35 23:59:14 11° 162° (SSE) 00:01:03 437.500
HUMSAT D 28 Apr 00:01:48 00:03:04 11° 269° (W) 00:04:02 437.325/437.525
NANOSAT C BR1 28 Apr 00:01:49 00:06:07 83° 281° (WNW) 00:10:24 145.865
ESTCUBE 1 28 Apr 00:05:16 00:09:27 36° 262° (W) 00:13:36 437.505/2401.250
POPSAT HIP 1 28 Apr 00:06:09 00:10:27 73° 283° (WNW) 00:14:44 437.405
PHONESAT 2.4 28 Apr 00:06:19 00:07:43 12° 220° (SW) 00:08:59 2401.200-2431.200
SPROUT 28 Apr 00:08:31 00:12:35 46° 75° (ENE) 00:16:42 437.525
BUGSAT 1 28 Apr 00:17:45 00:21:56 78° 284° (WNW) 00:26:09 437.445
TIGRISAT 28 Apr 00:30:48 00:34:11 19° 289° (WNW) 00:37:24 435.000
CUBEBUG 1 28 Apr 00:34:51 00:37:55 18° 266° (W) 00:40:50 437.445
DUCHIFAT 1 28 Apr 00:35:23 00:39:14 32° 286° (WNW) 00:43:00 145.980
UNISAT 6 28 Apr 00:36:36 00:39:35 16° 290° (WNW) 00:42:22 437.425
POLYITAN 1 28 Apr 00:37:33 00:41:19 29° 287° (WNW) 00:45:01 437.675
ITUPSAT 1 28 Apr 00:45:29 00:47:43 14° 69° (ENE) 00:50:13 437.325
Cosmos 2504 28 Apr 00:51:27 00:59:17 75° 83° (E) 01:06:36 435.465 / 435.565
QB50P1 28 Apr 00:55:14 00:58:18 19° 289° (WNW) 01:01:14 145.935-145.965
AIST 1 28 Apr 00:55:57 01:00:09 51° 278° (W) 01:04:19
TISAT 1 28 Apr 01:04:24 01:08:22 42° 261° (W) 01:12:20 437.305
BEESAT 28 Apr 01:12:45 01:16:47 29° 72° (ENE) 01:20:55 436.000
SWISSCUBE 28 Apr 01:15:28 01:19:43 34° 73° (ENE) 01:24:02 437.505
JUGNU 28 Apr 01:28:43 01:33:47 29° 177° (S) 01:38:49 437.505
BEESAT 3 28 Apr 01:39:35 01:43:30 51° 114° (ESE) 01:47:29 437.485
SRMSAT 28 Apr 01:43:23 01:47:54 22° 169° (S) 01:52:25 437.500
BEESAT 2 28 Apr 01:44:17 01:48:10 46° 114° (ESE) 01:52:09 435.950
SPROUT 28 Apr 01:48:10 01:48:58 10° 269° (W) 01:49:28 437.525
RS-15 28 Apr 01:48:10 01:57:47 28° 254° (WSW) 02:07:04 29.354- 29.394
KKS-1 28 Apr 02:05:18 02:07:58 16° 70° (ENE) 02:10:50 437.445
Oscar 19 28 Apr 02:06:02 02:11:09 57° 100° (E) 02:16:15 437.125/150
GONETS M04 28 Apr 02:18:50 02:23:19 15° 66° (ENE) 02:28:28
ITUPSAT 1 28 Apr 02:20:38 02:25:16 48° 261° (W) 02:29:53 437.325
CUSAT 1 28 Apr 02:43:59 02:48:24 16° 67° (ENE) 02:53:28 437.405
ITAMSAT 1 28 Apr 02:46:32 02:51:20 39° 98° (E) 02:56:12 435.822/435.867
Cosmos 2504 28 Apr 02:47:58 02:51:48 14° 277° (W) 02:54:58 435.465 / 435.565
BEESAT 28 Apr 02:50:53 02:54:37 22° 265° (W) 02:58:15 436.000
STARS 28 Apr 02:52:16 02:56:15 35° 73° (ENE) 03:00:17 437.465
SWISSCUBE 28 Apr 02:54:16 02:57:40 19° 266° (W) 03:00:53 437.505
AIST 2 28 Apr 03:00:15 03:04:28 77° 297° (WNW) 03:08:46 435.215
JUGNU 28 Apr 03:17:26 03:22:21 27° 187° (S) 03:27:13 437.505
BEESAT 3 28 Apr 03:20:20 03:21:52 11° 310° (NW) 03:23:11 437.485
BEESAT 2 28 Apr 03:24:39 03:26:35 13° 310° (NW) 03:28:20 435.950
Gurwin Techsat 1B 28 Apr 03:31:05 03:36:24 81° 285° (WNW) 03:41:43 435.225
SRMSAT 28 Apr 03:31:32 03:36:35 29° 179° (S) 03:41:37 437.500
DANDE 28 Apr 03:38:09 03:45:17 35° 75° (ENE) 03:53:00 436.750
KKS-1 28 Apr 03:40:22 03:44:23 33° 262° (W) 03:48:23 437.445
Oscar 19 28 Apr 03:47:26 03:50:05 14° 292° (WNW) 03:52:25 437.125/150
AO-7 28 Apr 04:02:51 04:09:53 31° 97° (E) 04:17:09 29.400- 29.500
GONETS M04 28 Apr 04:12:31 04:21:24 84° 265° (W) 04:30:12
HORYU 2 28 Apr 04:22:05 04:26:33 66° 101° (E) 04:30:59 437.375
CUSAT 1 28 Apr 04:23:57 04:32:05 90° 264° (W) 04:40:21 437.405
MOZHAYETS 4 28 Apr 04:25:47 04:30:03 38° 74° (ENE) 04:34:22
ITAMSAT 1 28 Apr 04:26:56 04:30:36 19° 291° (WNW) 04:34:06 435.822/435.867
STARS 28 Apr 04:30:18 04:32:51 15° 267° (W) 04:35:11 437.465
JAS-2 28 Apr 04:36:37 04:42:26 54° 99° (E) 04:47:42 435.910
Cosmos 2499 28 Apr 05:05:29 05:11:59 32° 75° (ENE) 05:18:18 435.465 / 435.565
JUGNU 28 Apr 05:07:13 05:10:51 16° 196° (SSW) 05:14:22 437.505
SRMSAT 28 Apr 05:20:33 05:25:17 25° 189° (S) 05:30:00 437.500
DANDE 28 Apr 05:20:59 05:28:38 46° 267° (W) 05:36:35 436.750
M-CUBED/EXP-1 PRIME 28 Apr 05:54:46 05:59:13 41° 70° (ENE) 06:03:47 437.505
AO-7 28 Apr 05:54:59 06:02:52 48° 292° (WNW) 06:10:41 29.400- 29.500
CUTE-I 28 Apr 05:58:02 06:00:15 13° 91° (E) 06:02:49 437.470
MOZHAYETS 4 28 Apr 06:04:38 06:07:27 15° 268° (W) 06:10:02
Cubesat XI-IV 28 Apr 06:07:33 06:10:52 17° 93° (E) 06:14:27 437.490
CUSAT 1 28 Apr 06:09:37 06:14:10 15° 274° (W) 06:18:07 437.405
CUBESAT XI-V 28 Apr 06:09:55 06:14:08 37° 74° (ENE) 06:18:25 437.345
GONETS M04 28 Apr 06:14:13 06:17:14 11° 278° (W) 06:19:20
JAS-2 28 Apr 06:23:25 06:26:59 16° 295° (WNW) 06:30:04 435.910
AUBIESAT-1 28 Apr 06:34:14 06:38:59 81° 252° (WSW) 06:43:49 437.475
Cosmos 2499 28 Apr 06:58:27 07:05:08 35° 271° (W) 07:11:20 435.465 / 435.565
PRISM 28 Apr 07:08:08 07:12:17 70° 259° (W) 07:16:25 437.425
PCSat 28 Apr 07:09:34 07:14:36 43° 110° (ESE) 07:19:44 145.827
SRMSAT 28 Apr 07:10:55 07:13:56 14° 197° (SSW) 07:16:49 437.500
STRAND 1 28 Apr 07:21:57 07:27:03 75° 258° (WSW) 07:32:10 437.568
M-CUBED/EXP-1 PRIME 28 Apr 07:30:59 07:34:12 17° 263° (W) 07:37:15 437.505
CUTE-I 28 Apr 07:35:31 07:40:44 57° 286° (WNW) 07:45:56 437.470
Cubesat XI-IV 28 Apr 07:46:10 07:51:12 44° 287° (WNW) 07:56:13 437.490
CUBESAT XI-V 28 Apr 07:48:54 07:51:45 15° 267° (W) 07:54:22 437.345
BRITE-PL 28 Apr 08:16:14 08:20:39 27° 96° (E) 08:25:22 437.365/2234.400
HO-68 28 Apr 08:32:02 08:37:17 23° 94° (E) 08:42:49 435.675
O/OREOS (USA 219) 28 Apr 08:32:40 08:37:06 65° 254° (WSW) 08:41:30 437.305
PCSat 28 Apr 08:54:10 08:58:15 21° 305° (NW) 09:02:11 145.827
SEEDS 28 Apr 08:54:36 08:57:32 19° 94° (E) 09:00:36 437.485
AAUSAT CUBESAT 2 28 Apr 09:05:03 09:07:40 17° 94° (E) 09:10:26 437.432
CANX-2 28 Apr 09:07:04 09:11:03 38° 98° (E) 09:15:00 2200.000
CUTE 1.7 + AOD 2 28 Apr 09:15:41 09:19:45 44° 99° (E) 09:23:48 437.475
GOMX 1 28 Apr 09:26:39 09:31:59 89° 282° (WNW) 09:37:30 467.674
SO-50 28 Apr 09:31:35 09:32:42 11° 108° (ESE) 09:34:08 436.795
ISS 28 Apr 09:39:13 09:41:50 23° 129° (SE) 09:44:30 145.825
TIGRISAT 28 Apr 09:48:12 09:50:35 15° 69° (ENE) 09:53:14 435.000
DOVE 4 28 Apr 09:49:25 09:54:39 78° 284° (WNW) 09:59:59 437.250
Cosmos 2491 28 Apr 09:49:42 09:58:24 61° 81° (E) 10:07:07 435.465 / 435.565
CUBEBUG 2 28 Apr 09:53:07 09:57:06 27° 95° (E) 10:01:08 437.445
UNISAT 6 28 Apr 09:53:16 09:56:11 18° 70° (ENE) 09:59:20 437.425
BRITE-PL 28 Apr 09:54:26 09:59:06 31° 287° (WNW) 10:03:54 437.365/2234.400
DELFI C3 28 Apr 09:56:33 09:59:38 22° 95° (E) 10:02:49 145.870
COMPASS 1 28 Apr 09:59:05 10:03:17 78° 283° (WNW) 10:07:26 437.405
QB50P1 28 Apr 10:09:24 10:09:52 10° 69° (ENE) 10:10:36 145.935-145.965
CINEMA 3 28 Apr 10:12:34 10:17:38 87° 283° (WNW) 10:22:39 145.822/145.860
UWE-3 28 Apr 10:12:51 10:17:09 36° 97° (E) 10:21:25 435.000/436.395/437.385
FUNcube-1 28 Apr 10:14:51 10:18:46 28° 96° (E) 10:22:43 145.935
HUMSAT D 28 Apr 10:15:07 10:16:24 11° 91° (E) 10:17:57 437.325/437.525
UKube-1 28 Apr 10:16:43 10:18:57 14° 93° (E) 10:21:26 .
HO-68 28 Apr 10:18:24 10:25:21 53° 289° (WNW) 10:32:13 435.675
SEEDS 28 Apr 10:29:50 10:33:21 25° 287° (WNW) 10:36:45 437.485
Oscar 11 28 Apr 10:33:32 10:37:53 83° 283° (WNW) 10:42:12 145.826/435.025
QB50P2 28 Apr 10:33:39 10:36:53 22° 72° (ENE) 10:40:14 145.880/145.840
ANTELSAT 28 Apr 10:33:48 10:38:11 53° 75° (ENE) 10:42:43 437.575/2403.000
AAUSAT CUBESAT 2 28 Apr 10:39:45 10:43:20 27° 287° (WNW) 10:46:49 437.432
ZACube-1 28 Apr 10:40:59 10:45:32 61° 100° (E) 10:50:02 437.345
CANX-2 28 Apr 10:44:33 10:46:40 13° 290° (WNW) 10:48:34 2200.000
YUBILEINY 28 Apr 10:46:22 10:55:10 77° 94° (E) 11:04:00 435.215
NANOSAT C BR1 28 Apr 10:49:07 10:52:52 33° 74° (ENE) 10:56:41 145.865
POPSAT HIP 1 28 Apr 10:53:33 10:57:26 38° 74° (ENE) 11:01:22 437.405
CUTE 1.7 + AOD 2 28 Apr 10:53:46 10:55:19 11° 290° (WNW) 10:56:36 437.475
VELOX 1 28 Apr 10:55:43 10:58:57 20° 95° (E) 11:02:20 145.980
BUGSAT 1 28 Apr 11:02:45 11:06:18 31° 74° (ENE) 11:09:54 437.445
SO-50 28 Apr 11:08:15 11:12:46 56° 300° (WNW) 11:17:26 436.795
AIST 1 28 Apr 11:09:30 11:12:43 21° 77° (ENE) 11:16:03
DX 1 28 Apr 11:12:05 11:16:28 80° 102° (ESE) 11:20:50 434.975-435.025
AISAT 28 Apr 11:14:07 11:18:12 35° 98° (E) 11:22:20 437.250
ISS 28 Apr 11:15:32 11:18:08 21° 322° (NW) 11:20:42 145.825
DUCHIFAT 1 28 Apr 11:21:38 11:25:49 89° 89° (E) 11:30:02 145.980
TIGRISAT 28 Apr 11:22:46 11:27:00 40° 262° (W) 11:31:20 435.000
POLYITAN 1 28 Apr 11:24:20 11:28:32 81° 258° (WSW) 11:32:48 437.675
UNISAT 6 28 Apr 11:28:38 11:32:44 33° 263° (W) 11:36:53 437.425
AIST 2 28 Apr 11:28:52 11:31:01 14° 51° (NE) 11:33:20 435.215
CUBEBUG 2 28 Apr 11:29:51 11:33:40 24° 288° (WNW) 11:37:20 437.445
DELFI C3 28 Apr 11:31:41 11:34:41 20° 288° (WNW) 11:37:32 145.870
Cosmos 2504 28 Apr 11:36:34 11:36:57 10° 81° (E) 11:38:18 435.465 / 435.565
BEESAT 3 28 Apr 11:41:15 11:45:20 84° 63° (ENE) 11:49:20 437.485
QB50P1 28 Apr 11:41:17 11:45:21 48° 261° (W) 11:49:27 145.935-145.965
BEESAT 2 28 Apr 11:46:31 11:50:37 78° 61° (ENE) 11:54:38 435.950
RS-15 28 Apr 11:48:05 11:50:07 11° 102° (ESE) 11:53:29 29.354- 29.394
Cosmos 2491 28 Apr 11:48:07 11:54:43 23° 274° (W) 12:00:51 435.465 / 435.565
HUMSAT D 28 Apr 11:48:19 11:52:26 43° 285° (WNW) 11:56:28 437.325/437.525
UWE-3 28 Apr 11:50:17 11:53:24 17° 290° (WNW) 11:56:19 435.000/436.395/437.385
UKube-1 28 Apr 11:51:17 11:55:15 35° 286° (WNW) 11:59:10 .
FUNcube-1 28 Apr 11:51:30 11:54:57 20° 288° (WNW) 11:58:13 145.935
SPROUT 28 Apr 12:02:33 12:04:26 13° 92° (E) 12:06:34 437.525
ESTCUBE 1 28 Apr 12:03:10 12:07:39 71° 102° (ESE) 12:12:07 437.505/2401.250
50 SAT 28 Apr 12:04:17 12:08:07 43° 285° (WNW) 12:11:53 437.505
QB50P2 28 Apr 12:09:24 12:12:43 22° 265° (W) 12:15:56 145.880/145.840
ANTELSAT 28 Apr 12:14:29 12:15:23 10° 270° (W) 12:15:57 437.575/2403.000
NANOSAT C BR1 28 Apr 12:26:31 12:28:51 14° 267° (W) 12:30:59 145.865
CUBEBUG 1 28 Apr 12:27:43 12:32:03 64° 284° (WNW) 12:36:24 437.445
POPSAT HIP 1 28 Apr 12:31:40 12:33:31 12° 268° (W) 12:35:08 437.405
VELOX 1 28 Apr 12:31:45 12:35:31 27° 288° (WNW) 12:39:12 145.980
BUGSAT 1 28 Apr 12:39:50 12:41:55 13° 267° (W) 12:43:46 437.445
AIST 1 28 Apr 12:47:00 12:50:18 21° 269° (W) 12:53:29
YUBILEINY 28 Apr 12:47:19 12:53:03 17° 292° (WNW) 12:58:11 435.215
AISAT 28 Apr 12:51:45 12:54:32 16° 290° (WNW) 12:57:09 437.250
TISAT 1 28 Apr 12:54:20 12:58:24 44° 99° (E) 13:02:30 437.305
AIST 2 28 Apr 13:05:53 13:09:52 42° 247° (WSW) 13:13:45 435.215
Oscar 19 28 Apr 13:17:19 13:22:12 46° 74° (ENE) 13:27:09 437.125/150
Cosmos 2504 28 Apr 13:20:31 13:29:20 75° 94° (E) 13:38:07 435.465 / 435.565
BEESAT 28 Apr 13:20:50 13:22:02 11° 91° (E) 13:23:35 436.000
SWISSCUBE 28 Apr 13:22:59 13:25:10 13° 92° (E) 13:27:39 437.505
SPROUT 28 Apr 13:36:40 13:40:43 38° 286° (WNW) 13:44:44 437.525
RS-15 28 Apr 13:50:23 14:01:13 76° 114° (ESE) 14:12:12 29.354- 29.394
ITAMSAT 1 28 Apr 13:59:11 14:03:47 34° 72° (ENE) 14:08:27 435.822/435.867
VERMONT LUNAR 28 Apr 14:11:11 14:14:17 37° 146° (SE) 14:17:27 437.305
ITUPSAT 1 28 Apr 14:26:43 14:31:28 69° 101° (ESE) 14:36:12 437.325
TISAT 1 28 Apr 14:32:14 14:33:51 12° 290° (WNW) 14:35:12 437.305
JAS-2 28 Apr 14:42:56 14:47:27 18° 66° (ENE) 14:52:21 435.910
Gurwin Techsat 1B 28 Apr 14:46:25 14:51:43 89° 246° (WSW) 14:57:04 435.225
STARS 28 Apr 14:50:27 14:51:03 10° 91° (E) 14:52:00 437.465
BEESAT 28 Apr 14:55:37 15:00:16 53° 285° (WNW) 15:04:52 436.000
AO-7 28 Apr 14:56:32 15:02:56 27° 63° (ENE) 15:09:37 29.400- 29.500
Oscar 19 28 Apr 14:58:42 15:01:51 15° 268° (W) 15:04:43 437.125/150
SWISSCUBE 28 Apr 14:58:46 15:03:18 44° 286° (WNW) 15:07:48 437.505
PHONESAT 2.4 28 Apr 15:10:49 15:14:07 37° 145° (SE) 15:17:29 2401.200-2431.200
GONETS M04 28 Apr 15:12:33 15:18:31 22° 85° (E) 15:24:58
HORYU 2 28 Apr 15:15:10 15:19:02 30° 73° (ENE) 15:22:59 437.375
Cosmos 2504 28 Apr 15:17:30 15:23:40 19° 291° (WNW) 15:29:15 435.465 / 435.565
KKS-1 28 Apr 15:36:31 15:41:01 72° 102° (ESE) 15:45:30 437.445
ITAMSAT 1 28 Apr 15:39:24 15:43:22 21° 265° (W) 15:47:10 435.822/435.867
VERMONT LUNAR 28 Apr 15:48:42 15:51:46 32° 339° (NNW) 15:54:51 437.305
PCSat 28 Apr 16:05:30 16:07:10 12° 49° (NE) 16:09:10 145.827
RS-15 28 Apr 16:05:55 16:14:50 27° 317° (NW) 16:23:33 29.354- 29.394
STARS 28 Apr 16:23:32 16:27:51 50° 285° (WNW) 16:32:09 437.465
JAS-2 28 Apr 16:23:57 16:31:50 82° 258° (WSW) 16:39:33 435.910
MOZHAYETS 4 28 Apr 16:28:07 16:30:22 14° 92° (E) 16:32:53
DANDE 28 Apr 16:46:33 16:49:19 26° 89° (E) 16:52:49 436.750
AO-7 28 Apr 16:47:13 16:55:20 57° 258° (WSW) 17:03:25 29.400- 29.500
PHONESAT 2.4 28 Apr 16:49:04 16:52:22 35° 339° (NNW) 16:55:42 2401.200-2431.200
HORYU 2 28 Apr 16:52:32 16:55:44 18° 266° (W) 16:58:47 437.375
GONETS M04 28 Apr 17:06:07 17:14:46 62° 279° (W) 17:23:29
CUTE-I 28 Apr 17:15:02 17:17:19 13° 67° (ENE) 17:19:56 437.470
Cubesat XI-IV 28 Apr 17:24:36 17:27:53 17° 69° (ENE) 17:31:23 437.490
CUSAT 1 28 Apr 17:27:38 17:31:01 45° 284° (WNW) 17:35:28 437.405
VERMONT LUNAR 28 Apr 17:27:45 17:29:51 15° 355° (N) 17:31:57 437.305
Cosmos 2499 28 Apr 17:33:30 17:41:06 35° 89° (E) 17:48:47 435.465 / 435.565
PCSat 28 Apr 17:45:54 17:51:20 82° 248° (WSW) 17:56:44 145.827
ISS 28 Apr 17:46:42 17:49:26 24° 39° (NE) 17:52:11 145.825
MOZHAYETS 4 28 Apr 18:03:33 18:07:49 39° 285° (WNW) 18:12:02
CUBESAT XI-V 28 Apr 18:13:34 18:15:59 15° 92° (E) 18:18:39 437.345
JAS-2 28 Apr 18:15:00 18:17:50 12° 273° (W) 18:19:52 435.910
AUBIESAT-1 28 Apr 18:24:40 18:25:09 10° 94° (E) 18:25:54 437.475
PHONESAT 2.4 28 Apr 18:28:50 18:31:15 17° 355° (N) 18:33:40 2401.200-2431.200
DANDE 28 Apr 18:32:25 18:33:03 10° 296° (WNW) 18:33:26 436.750
CUTE-I 28 Apr 18:51:43 18:56:58 60° 259° (W) 19:02:13 437.470
PRISM 28 Apr 18:56:44 19:00:01 24° 96° (E) 19:03:23 437.425
